Regional Weather Roundup
Issued by NWS

Home | Current Version | Previous Version | Text Only | Print | Product List | Glossary Off
Versions: 1 2 3 4 5 6 7 8 9 10 11 12 13 14 15 16 17 18 19 20 21 22 23 24 25 26 27 28 29 30 31 32 33 34 35 36 37 38 39 40 41 42 43 44 45 46 47 48 49 50

000
ASUS43 KMPX 181901
RWRMN
WEATHER ROUNDUP FOR MINNESOTA
NATIONAL WEATHER SERVICE TWIN CITIES/CHANHASSEN MN
100 PM CST THU DEC 18 2014


NOTE: "FAIR" INDICATES FEW OR NO CLOUDS BELOW 12,000 FEET WITH NO
SIGNIFICANT WEATHER AND/OR OBSTRUCTIONS TO VISIBILITY. N/A MEANS
CURRENT SKY AND/OR WEATHER CONDITIONS ARE NOT AVAILABLE.

MNZ060>063-068>070-182000-
   Twin Cities Metro

CITY           SKY/WX    TMP DP  RH WIND       PRES   REMARKS
TWIN CITIES    FLURRIES  20  16  84 CALM      30.28F
ST PAUL        CLOUDY    21  17  84 S5        30.30F WCI  15
CRYSTAL        CLOUDY    22  15  75 CALM      30.26F HAZE
BLAINE         LGT SNOW  23  19  86 CALM      30.27F
LAKEVILLE      FLURRIES  19  16  86 CALM      30.26F
EDEN PRAIRIE   CLOUDY    21  14  74 S3        30.26F
SOUTH ST PAUL  CLOUDY    22  17  78 CALM      30.28F
LAKE ELMO      CLOUDY    23  19  86 S3        30.28F
$$
MNZ001>005-007-008-013>017-022>024-027-028-182000-
   Northwest Minnesota

CITY           SKY/WX    TMP DP  RH WIND       PRES   REMARKS
BEMIDJI        LGT SNOW  17  13  86 S12       30.21F WCI   4
HALLOCK        MOSUNNY   19  16  86 S14       30.20F WCI   6
ROSEAU         SUNNY     21  16  79 S12       30.21F WCI   9
WARROAD        SUNNY     21  16  79 S7        30.22F WCI  13
THIEF RVR FALL MOSUNNY   18  12  79 S12       30.21F WCI   5
CROOKSTON      PTSUNNY   18  16  93 S12       30.23F WCI   5
FOSSTON        MOSUNNY   18  12  79 S9        30.21F WCI   6
DETROIT LAKES  CLOUDY    19  16  86 S10       30.21F WCI   8
MOORHEAD       CLOUDY    18  18 100 SE12      30.22F WCI   5
PARK RAPIDS    CLOUDY    18  13  80 S14       30.21F WCI   4
MAHNOMEN       FAIR      18  12  79 S9G16     30.21F WCI   6
$$
MNZ006-009>011-018-025>026-182000-
   North Central Minnesota

CITY           SKY/WX    TMP DP  RH WIND       PRES   REMARKS
BAUDETTE       SUNNY     21  13  71 S8        30.22F WCI  11
FLAG ISLAND    SUNNY     12   9  85 S5        30.22F WCI   4
INTL FALLS     CLOUDY    19  13  77 S6        30.25F WCI  11
WASKISH        FLURRIES  18  12  79 CALM      30.24F
BIG FORK       CLOUDY    21  16  79 S6        30.24F WCI  14
LONGVILLE      LGT SNOW  19  16  86 S6        30.23F WCI  11
GRAND RAPIDS   CLOUDY    18  16  93 S3        30.22F
CRANE LAKE     CLOUDY    18  16  93 CALM      30.28F
ORR            CLOUDY    18  14  86 CALM      30.22F
COOK           CLOUDY    19  16  86 CALM      30.25F
WALKER         FLURRIES  17  12  82 S8        30.23F WCI   6
$$
MNZ012-019>021-037-182000-
   Northeast Minnesota

CITY           SKY/WX    TMP DP  RH WIND       PRES   REMARKS
DULUTH         CLOUDY    25  18  74 SE14      30.22F WCI  13
ELY            CLOUDY    21  18  86 E5        30.24F WCI  15
HIBBING        CLOUDY    22  16  78 CALM      30.23F
EVELETH        PTSUNNY   23  19  86 CALM      30.24F
DULUTH HARBOR  CLOUDY    28  21  74 CALM      30.28F
TWO HARBORS    CLOUDY    30  25  80 SE7       30.23F WCI  23
SILVER BAY     CLOUDY    27  21  80 NE6       30.24F WCI  20
GRAND MARAIS     N/A     25  16  68 CALM      30.31F
G MARAIS ARPRT MOSUNNY   19   9  63 CALM      30.23F
$$
MNZ029>031-032-039>041-046>048-054>057-064-182000-
   West Central Minnesota

CITY           SKY/WX    TMP DP  RH WIND       PRES   REMARKS
FERGUS FALLS   PTSUNNY   18  12  79 S13       30.26F WCI   4
WHEATON        CLOUDY    16  12  86 SE14      30.23F WCI   1
MORRIS         PTSUNNY   18  16  93 SE9       30.21F WCI   6
ALEXANDRIA     MOSUNNY   17  12  80 S10       30.22F WCI   5
ELBOW LAKE     CLOUDY    17  14  88 SE13      30.22F WCI   3
WADENA         CLOUDY    18  12  79 NW8       30.22F WCI   7
GLENWOOD       PTSUNNY   18  14  86 SE8       30.23F WCI   7
APPLETON       CLOUDY    19  16  86 SE5       30.23F WCI  13
BENSON         CLOUDY    18  14  86 S8        30.23F WCI   7
ORTONVILLE     CLOUDY    18  12  79 SE7       30.21F WCI   8
MADISON        PTSUNNY   21  19  93 SE5       30.22F WCI  15
WILLMAR        FAIR      19  12  73 SE7       30.25F WCI  10
$$
MNZ033>034-036-042>043-049>051-058-059-182000-
   Central Minnesota

CITY           SKY/WX    TMP DP  RH WIND       PRES   REMARKS
ST CLOUD       LGT SNOW  20  15  81 SE3       30.26F
SAUK CENTRE    FAIR      17  11  77 SE6       30.24F WCI   9
PAYNESVILLE    MOSUNNY   17  11  79 SE7       30.24F WCI   7
AITKIN         CLOUDY    25  18  74 S7        30.23F WCI  17
PINE RIVER     CLOUDY    19  16  86 S8        30.26F WCI   9
BRAINERD       CLOUDY    20  15  81 SE7       30.24F WCI  11
STAPLES        CLOUDY    18  12  79 SE8       30.23F WCI   7
LONG PRAIRIE   LGT SNOW  18  12  79 NW5       30.24F WCI  11
LITTLE FALLS   FLURRIES  19  14  79 SE8       30.25F WCI   9
LITCHFIELD     MOSUNNY   19  16  86 SE5       30.25F WCI  13
BUFFALO        CLOUDY    20  14  76 CALM      30.28F
MAPLE LAKE     PTSUNNY   22  17  79 S3        30.27F
$$
MNZ037-044-045-052-053-182000-
   East Central Minnesota

CITY           SKY/WX    TMP DP  RH WIND       PRES   REMARKS
PRINCETON      FLURRIES  21  18  86 S3        30.26F
MORA           CLOUDY    21  18  86 S6        30.27F WCI  14
CAMBRIDGE      FLURRIES  21  14  73 S3        30.26F
RUSH CITY      CLOUDY    21  18  86 S3        30.27F
MOOSE LAKE     CLOUDY    23  19  86 SE3       30.24F
HINCKLEY       CLOUDY    23  19  86 CALM      30.26F
CLOQUET        CLOUDY    25  18  74 E9        30.23F WCI  15
MCGREGOR       CLOUDY    23  21  93 NE3       30.25F
$$
MNZ071>073-080-081-089-090-097-098-182000-
   Southwest Minnesota

CITY           SKY/WX    TMP DP  RH WIND       PRES   REMARKS
MONTEVIDEO     CLOUDY    19  18  93 S6        30.24F WCI  11
GRANITE FALLS  CLOUDY    19  16  87 E6        30.25F WCI  11
CANBY          CLOUDY    21  19  91 SE3       30.21F
MARSHALL       CLOUDY    19  16  86 SE3       30.21F
REDWOOD FALLS  CLOUDY    19  15  84 SE7       30.24F WCI  10
OLIVIA         PTSUNNY   21  18  86 SE3       30.24F
PIPESTONE      CLOUDY    21  19  93 CALM      30.17F
WINDOM         CLOUDY    21  18  86 CALM      30.20F
WORTHINGTON    CLOUDY    23  18  80 S7        30.19F WCI  15
JACKSON        CLOUDY    23  19  86 S5        30.20F WCI  17
TRACY          CLOUDY    23  20  87 CALM      30.21F
SLAYTON        CLOUDY    23  21  91 CALM      30.19F
$$
MNZ065>067-074>077-082>085-091>093-182000-
   South Central Minnesota

CITY           SKY/WX    TMP DP  RH WIND       PRES   REMARKS
MANKATO        PTSUNNY   19  12  73 E3        30.25F
NEW ULM        MOSUNNY   19  16  86 CALM      30.24F
ST JAMES       CLOUDY    21  18  86 E5        30.25F WCI  15
FAIRMONT       CLOUDY    21  16  79 S5        30.22F WCI  15
GLENCOE        MOSUNNY   21  15  78 SE6       30.25F WCI  14
FARIBAULT      CLOUDY    21  16  79 S3        30.25F
OWATONNA       LGT SNOW  19  12  73 CALM      30.24F
WASECA         MOSUNNY   21  14  73 CALM      30.26F
ALBERT LEA     MOSUNNY   21  16  79 CALM      30.23F
$$
MNZ078>079-086>088-094>096-182000-
   Southeast Minnesota

CITY           SKY/WX    TMP DP  RH WIND       PRES   REMARKS
ROCHESTER      CLOUDY    20  14  77 CALM      30.24F HAZE
RED WING       LGT SNOW  23  18  80 CALM      30.27F
STANTON        FLURRIES  22  15  75 CALM      30.25F
DODGE CENTER   FLURRIES  19  16  86 CALM      30.23F
WINONA         CLOUDY    25  21  86 CALM      30.28F
AUSTIN         PTSUNNY   19  16  86 CALM      30.23F
PRESTON        CLOUDY    20  15  82 CALM      30.23F
$$
ABBREVIATIONS USED IN REMARKS
   TC - TEMPERATURES IN CELSIUS
  WCI - WIND CHILL INDEX
   HX - HEAT INDEX
  VSB - VISIBILITY
$$


USA.gov is the U.S. government's official web portal to all federal, state and local government web resources and services.